Temperature
10 10 9 9 9 9 8 8 7 7 7 6 6 6 6 5 5 5 5 5 5 5 4 4 4 4 3 3 3 3 2 2 1 2 1 1 1 1 1 0 0 0 1
9 9 9 8 8 8 7 7 7 6 6 6 6 5 5 5 5 5 4 4 4 4 4 3 3 3 3 2 2 2 1 1 1 1 1 1 1 1 0 0 0 0 1
8 8 8 7 7 7 6 6 6 6 6 5 5 5 5 4 4 4 3 3 3 3 3 2 2 2 1 1 1 1 1 1 0 0 0 0 0 0 0 0 0 1 1
7 7 7 6 6 6 6 6 5 5 5 5 4 4 4 3 3 3 2 2 2 2 2 1 1 1 1 0 0 0 0 0 -0 -0 -0 -0 -0 -0 -0 -0 0 0 1
7 6 6 6 5 5 5 5 5 5 4 4 4 3 3 2 2 2 1 1 1 1 1 1 1 0 0 -0 -0 -0 -0 -0 -0 -0 -0 -1 -1 -1 -1 -1 -1 -0 0
6 5 5 5 5 5 5 4 4 4 4 3 3 2 2 1 1 1 0 0 0 0 1 0 0 0 -0 -0 -0 -0 -0 -1 -1 -1 -1 -1 -1 -1 -1 -1 -1 -0 -0
5 5 4 4 4 4 4 4 4 3 3 2 2 1 1 1 0 0 -0 -0 -0 -0 -0 -0 -0 -0 -0 -0 -0 -0 -0 -1 -1 -1 -1 -1 -1 -1 -1 -1 -0 -0 0
4 4 4 4 4 4 4 3 3 2 2 1 1 1 0 0 -0 -0 -0 -0 -0 -0 -0 -0 -1 -0 -0 -0 -0 -0 -0 -0 -0 -1 -1 -1 -1 -0 -0 -0 -0 0 0
4 4 4 4 4 3 3 3 2 2 1 0 0 0 -0 -0 -0 -1 -1 -1 -0 -0 -0 -0 -1 -1 -0 -0 -0 -0 -0 0 0 -0 -0 -0 -0 -0 0 0 0 -0 -0
4 4 4 4 3 3 2 2 1 1 0 -0 -0 -0 -1 -1 -1 -1 -1 -1 -1 -1 -0 -0 -0 -0 -0 -0 0 0 0 0 0 0 0 0 0 0 0 -0 -0 -0 -1
4 4 3 3 3 2 2 1 0 0 -0 -0 -0 -1 -1 -1 -1 -1 -1 -1 -1 -1 -1 -1 -0 -0 -0 -0 0 0 0 0 0 0 0 0 0 -0 -0 -1 -1 -1 -1
4 3 3 3 2 2 1 0 0 -0 -0 -0 -1 -1 -1 -1 -1 -1 -1 -1 -1 -1 -1 -1 -1 -1 -0 -0 -0 0 0 0 0 0 0 0 -0 -0 -1 -1 -1 -1 -1
3 3 3 2 2 1 1 0 0 -0 -0 -1 -1 -1 -1 -1 -2 -1 -1 -1 -1 -1 -1 -1 -1 -1 -0 -0 -0 -0 0 0 0 0 0 0 -0 -0 -1 -1 -1 -0 -0
3 3 2 2 1 1 1 0 0 -0 -1 -1 -1 -1 -2 -2 -2 -2 -1 -1 -1 -1 -1 -1 -1 -0 -0 -0 -0 -0 -0 0 0 0 0 0 0 -0 -1 -1 -0 -0 -0
3 3 2 2 2 1 1 0 0 -0 -1 -1 -1 -2 -2 -2 -2 -2 -2 -2 -2 -1 -1 -1 -1 -0 -0 -0 -0 -0 0 0 0 0 0 0 -0 -0 -1 -1 -1 -1 -0
3 3 2 2 2 2 1 1 0 -0 -1 -1 -2 -2 -2 -2 -2 -2 -2 -2 -2 -1 -1 -1 -1 -0 -0 -0 0 0 0 0 1 1 0 0 -0 -1 -1 -1 -1 -1 -0
3 3 2 2 2 2 1 1 0 -0 -1 -1 -2 -2 -2 -2 -2 -2 -2 -2 -2 -1 -1 -1 -1 -1 -0 -0 0 0 0 1 1 1 0 0 -0 -1 -1 -1 -1 -1 -1
3 3 3 2 2 2 2 1 0 -0 -1 -1 -1 -2 -2 -2 -2 -2 -2 -2 -2 -1 -1 -1 -1 -1 -0 -0 0 0 1 1 1 1 1 0 -0 -1 -1 -1 -1 -1 -1
3 3 3 3 2 2 2 1 1 -0 -1 -1 -1 -1 -2 -2 -2 -2 -2 -2 -2 -2 -1 -1 -1 -1 -0 0 0 1 1 1 1 1 1 1 0 -0 -1 -1 -1 -1 -1
3 3 3 3 2 2 2 1 0 -0 -1 -1 -1 -2 -2 -2 -2 -2 -2 -2 -2 -1 -1 -1 -1 -0 -0 0 0 1 1 1 1 1 1 1 1 1 0 -0 -0 -1 -1
3 3 3 3 2 2 1 1 0 -0 -1 -1 -1 -2 -2 -2 -2 -2 -2 -2 -1 -1 -1 -1 -1 -0 -0 0 1 1 1 1 2 2 2 2 2 1 1 1 0 -0 -1
4 3 3 2 2 2 1 1 -0 -0 -1 -1 -1 -2 -2 -1 -1 -1 -1 -1 -1 -1 -1 -1 -0 -0 -0 0 1 1 1 2 2 2 2 2 2 2 2 2 1 1 0
3 3 2 2 2 1 1 0 -0 -1 -1 -1 -1 -1 -1 -1 -1 -1 -1 -1 -1 -1 -1 -0 -0 -0 0 0 1 1 1 2 2 2 3 3 3 3 3 2 2 2 1
3 2 2 2 1 1 0 -0 -0 -1 -1 -1 -1 -1 -1 -1 -1 -1 -1 -1 -1 -1 -0 -0 -0 0 0 1 1 1 2 2 2 3 3 3 3 3 3 3 3 3 2
2 2 2 1 1 1 0 -0 -1 -1 -1 -1 -1 -1 -1 -1 -1 -1 -1 -1 -0 -0 -0 0 0 1 1 1 1 2 2 2 3 3 3 4 4 4 4 4 4 3 3
2 2 1 1 1 0 -0 -1 -1 -1 -1 -1 -1 -1 -1 -1 -1 -1 -1 -1 -0 -0 0 1 1 1 1 1 2 2 2 3 3 3 3 4 4 4 4 4 4 4 4
Wind_Speed
11 11 10 9 9 9 9 8 7 5 5 4 3 3 4 7 7 7 7 7 7 6 6 6 6 6 4 4 4 4 5 5 10 8 5 5 7 10 12 16 19 18 19
10 10 10 9 9 9 8 7 7 7 7 7 7 9 10 9 8 8 7 6 6 6 7 7 7 7 7 6 5 6 6 6 7 12 7 5 8 9 10 11 12 15 14
9 10 10 10 9 9 8 8 8 8 8 8 8 8 8 7 6 5 4 5 5 6 7 7 8 8 8 7 8 7 7 8 7 9 10 6 6 8 8 11 12 9 13
10 10 10 9 8 8 8 8 8 8 8 7 7 7 6 5 4 3 4 5 6 7 8 8 8 8 9 9 8 8 8 9 9 10 11 9 8 8 7 8 10 8 9
10 9 8 7 8 8 8 7 7 7 7 6 6 5 3 2 1 2 4 6 7 9 9 9 9 13 16 12 11 9 9 9 10 10 11 9 8 7 8 7 10 10 10
9 8 7 6 6 6 6 6 7 7 6 6 5 3 2 1 2 4 6 6 8 9 10 10 11 12 15 19 22 21 19 14 11 11 10 11 11 9 9 10 10 11 9
7 5 4 5 5 5 6 7 6 5 5 5 3 3 2 3 4 6 10 8 8 9 10 10 11 13 16 12 17 21 19 22 21 15 13 12 11 10 11 12 12 12 12
5 4 4 5 6 7 7 6 5 4 4 3 3 3 3 4 5 7 11 9 8 9 10 10 11 13 13 14 14 14 13 13 14 11 10 11 12 11 11 12 12 11 10
4 4 4 6 7 7 6 5 3 3 3 3 3 4 4 4 6 8 10 7 8 10 11 11 12 12 15 17 14 13 13 11 12 12 13 12 14 14 11 7 6 7 6
4 5 6 7 7 6 5 3 3 3 3 4 5 5 4 4 6 9 11 6 8 10 10 11 13 13 17 18 12 10 11 10 9 10 9 8 8 7 6 4 5 5 4
5 7 7 7 6 5 4 3 3 4 4 5 5 5 5 5 8 11 13 7 8 10 9 9 9 16 18 17 14 9 11 10 8 7 6 6 5 4 4 4 4 4 4
6 7 7 6 5 5 5 4 4 5 4 5 5 6 5 6 7 10 15 14 12 9 9 9 10 17 18 16 11 12 14 9 5 5 5 4 4 4 4 5 5 5 4
6 6 6 6 5 4 4 4 3 4 3 3 4 5 6 6 7 12 14 16 17 10 9 14 16 17 15 10 11 13 10 6 5 5 5 4 3 3 4 5 5 5 4
6 5 5 5 3 3 3 3 2 1 2 3 4 5 6 6 6 7 8 9 12 11 10 12 15 14 11 10 9 8 6 5 5 5 6 4 3 3 3 4 4 5 4
6 5 4 3 3 2 2 2 3 3 3 2 2 3 5 6 8 13 9 7 7 9 9 6 6 8 8 7 7 7 6 6 6 6 5 5 4 3 3 4 4 4 5
6 4 3 2 2 3 2 2 4 5 6 6 6 5 5 7 11 13 14 14 13 14 8 7 8 8 8 8 7 7 6 7 6 6 5 5 5 5 5 4 4 5 6
5 4 3 3 3 3 2 2 2 4 5 7 8 9 9 10 10 12 14 14 12 11 6 6 7 8 8 8 7 7 6 7 6 6 5 5 5 5 5 6 6 6 6
3 3 3 3 3 3 2 3 2 1 2 3 5 7 9 9 10 12 13 10 7 7 6 7 7 8 8 8 8 7 7 8 7 6 5 4 4 5 5 6 7 8 7
2 1 1 1 1 1 1 2 1 1 1 2 3 5 8 8 8 9 9 5 5 6 7 7 7 8 8 8 8 8 8 7 8 7 5 4 3 4 5 6 6 9 8
1 2 0 1 2 2 2 3 2 2 2 2 2 3 5 5 5 6 5 5 5 6 6 7 7 8 8 8 8 8 8 8 9 7 7 5 2 2 3 4 4 5 6
2 2 1 2 3 3 3 3 3 2 2 1 1 3 5 4 5 6 6 5 5 6 6 7 7 7 8 8 8 9 9 8 8 8 7 6 3 1 2 2 2 2 3
2 2 2 3 3 3 4 3 3 3 2 1 1 3 5 4 5 5 5 6 5 5 5 6 6 6 6 7 7 8 8 8 8 9 8 6 4 3 2 2 2 2 3
5 5 5 4 4 5 5 4 3 3 2 1 2 3 4 5 5 6 6 6 6 5 7 6 6 6 8 9 9 6 6 7 7 7 7 6 5 4 3 3 3 4 5
5 5 5 4 4 4 4 4 3 3 2 3 3 4 4 5 5 7 7 6 5 7 9 9 8 9 12 11 11 11 11 12 11 8 6 5 5 5 4 5 5 6 6
5 5 5 4 4 4 4 4 4 4 4 5 5 5 5 6 6 7 7 5 6 7 10 12 12 12 14 14 14 15 17 17 15 12 9 5 6 6 6 6 6 6 6
6 6 5 5 4 4 5 5 5 5 5 5 5 5 6 6 7 7 8 7 7 7 10 13 15 16 16 16 17 18 16 16 16 15 12 6 7 7 6 6 7 6 6
Wind_Direction
96 95 95 97 100 99 101 104 107 100 90 74 56 44 38 38 41 46 43 35 28 11 0 349 326 313 304 298 287 274 263 258 284 288 258 269 277 281 291 290 289 284 281
99 96 93 93 93 90 87 82 79 71 59 58 63 71 74 69 60 52 33 22 6 347 332 324 314 313 302 288 278 268 263 255 262 285 285 275 273 278 280 284 294 292 287
97 95 91 88 87 84 81 78 76 73 66 65 74 82 83 78 66 53 33 7 343 322 312 307 302 302 299 292 283 275 271 274 259 272 282 272 270 278 284 289 290 288 293
93 91 86 82 82 81 79 77 71 70 69 73 83 96 98 92 76 40 11 347 331 317 307 300 296 293 288 288 290 279 279 278 274 274 278 279 273 271 272 281 290 282 284
88 83 78 75 74 75 74 71 70 72 76 77 84 99 115 105 60 23 351 339 326 317 311 303 299 306 309 308 305 297 292 287 284 280 281 282 279 277 275 274 283 285 279
78 76 73 72 71 73 76 77 75 67 59 61 66 69 38 3 319 344 347 329 318 312 309 306 305 304 307 310 307 305 300 294 291 285 285 283 283 276 277 278 280 284 286
71 72 79 81 79 79 87 80 74 66 58 58 49 33 355 304 303 333 341 335 314 306 303 304 310 310 310 302 302 303 298 293 288 284 282 280 280 278 278 280 277 278 279
77 85 96 102 95 88 84 78 68 60 53 38 15 4 357 345 352 348 341 333 311 305 303 302 302 303 305 308 309 302 294 289 285 283 273 273 275 276 275 278 283 282 275
97 102 100 106 102 93 86 76 64 59 37 15 8 17 23 4 359 345 344 323 313 311 309 307 308 306 308 316 315 305 301 299 299 289 279 280 281 282 285 286 288 295 299
102 93 95 101 102 100 94 77 51 52 40 29 27 26 26 356 339 342 344 323 318 318 313 310 312 313 317 322 322 311 306 306 309 310 306 302 298 300 307 304 307 305 309
103 96 97 101 104 101 85 67 57 52 45 33 22 2 352 339 334 336 338 335 321 317 315 316 316 318 323 325 325 321 317 314 308 307 309 314 319 323 323 318 312 306 306
105 101 97 93 93 96 87 63 55 56 43 18 2 346 334 330 330 331 332 330 327 317 314 315 316 320 325 326 328 329 330 330 322 321 322 325 329 332 324 319 316 315 312
107 107 103 97 92 101 101 85 57 47 39 6 354 340 328 326 327 331 331 328 330 328 315 318 323 325 330 329 327 332 336 337 333 330 326 317 310 311 320 325 326 329 332
119 120 119 115 107 100 104 115 105 70 33 358 343 331 322 321 326 333 329 324 327 331 325 323 325 327 333 329 330 336 337 330 327 325 323 315 313 332 343 342 342 348 350
120 127 136 145 156 167 175 186 179 203 198 212 274 290 309 319 323 328 331 326 329 329 326 325 333 336 339 339 341 340 337 339 339 335 335 343 352 4 1 352 355 359 8
126 141 158 174 197 201 210 269 258 238 239 239 253 278 294 301 324 337 343 344 346 345 346 339 338 338 338 340 343 342 339 341 340 343 350 0 10 15 13 9 12 19 22
143 168 192 207 216 217 211 217 279 305 289 281 287 303 318 330 344 348 348 343 346 352 354 343 339 340 342 345 348 349 344 339 343 351 3 13 21 23 25 26 25 28 33
161 191 204 231 237 229 217 205 206 221 334 335 330 338 348 351 348 349 348 348 352 355 348 343 342 342 344 348 350 350 347 348 354 357 3 18 30 30 33 36 35 35 39
174 212 236 245 238 187 162 152 145 125 74 14 1 354 352 344 336 343 349 356 345 344 342 342 341 342 345 349 351 350 350 353 355 357 359 12 38 44 44 44 45 38 40
266 266 178 112 70 83 104 114 115 108 90 52 19 350 341 347 350 347 347 343 343 340 339 340 341 343 347 350 351 351 353 356 357 357 354 0 31 75 76 64 58 54 49
254 261 199 83 76 92 104 112 118 115 118 94 331 329 348 350 345 342 343 343 341 339 338 337 340 344 348 348 350 351 353 353 353 353 354 355 8 75 115 120 101 74 61
88 104 107 99 95 94 98 97 95 93 91 80 320 330 344 348 343 345 345 343 337 330 327 330 333 335 337 341 344 346 348 349 350 350 349 350 1 30 71 88 89 78 67
87 86 82 84 89 90 85 80 88 90 82 55 5 4 0 357 354 354 352 348 345 341 341 340 338 340 342 340 340 337 335 331 324 322 332 344 360 17 45 74 94 98 89
86 88 89 90 86 84 83 77 75 78 70 40 25 25 16 6 2 2 1 355 350 353 356 355 352 349 349 349 345 342 335 330 326 323 326 349 6 19 40 61 82 103 105
80 82 86 91 90 84 79 74 68 61 54 47 40 33 22 17 11 7 5 360 1 4 7 5 1 358 353 349 348 344 343 349 357 359 357 3 23 32 45 60 79 98 107
68 71 76 81 80 80 82 78 69 64 59 55 48 41 33 26 18 12 8 8 8 7 9 8 2 2 1 356 350 352 358 3 7 14 21 25 37 42 48 56 72 82 96
Height
1504 1506 1508 1510 1513 1515 1517 1518 1520 1521 1522 1523 1523 1523 1523 1522 1521 1520 1518 1516 1514 1512 1510 1507 1504 1501 1498 1495 1492 1489 1486 1483 1476 1470 1469 1467 1464 1461 1457 1453 1449 1446 1444
1506 1508 1510 1512 1513 1515 1517 1518 1520 1520 1521 1521 1521 1521 1520 1520 1518 1517 1515 1512 1510 1507 1504 1501 1498 1494 1491 1488 1484 1481 1479 1476 1471 1464 1461 1459 1457 1454 1450 1446 1443 1440 1438
1509 1510 1511 1513 1514 1516 1517 1518 1519 1520 1520 1519 1519 1518 1518 1517 1515 1513 1511 1508 1505 1502 1498 1495 1491 1487 1484 1481 1478 1475 1472 1469 1465 1460 1454 1452 1449 1447 1444 1440 1437 1434 1432
1510 1511 1512 1514 1515 1517 1518 1519 1519 1519 1519 1518 1517 1516 1515 1514 1512 1510 1507 1504 1500 1497 1493 1490 1486 1483 1479 1476 1472 1469 1466 1462 1458 1453 1448 1445 1442 1440 1437 1434 1430 1427 1425
1511 1512 1514 1515 1516 1517 1518 1519 1519 1519 1518 1517 1516 1514 1513 1511 1509 1506 1503 1500 1496 1493 1489 1486 1482 1478 1475 1471 1468 1463 1459 1455 1451 1446 1442 1438 1435 1433 1431 1428 1424 1420 1417
1512 1514 1515 1517 1518 1518 1519 1519 1519 1518 1517 1515 1514 1512 1511 1509 1506 1503 1500 1497 1493 1489 1485 1481 1477 1474 1470 1466 1462 1458 1454 1449 1443 1440 1435 1432 1429 1427 1424 1421 1418 1414 1409
1515 1516 1517 1518 1519 1519 1519 1519 1518 1517 1516 1514 1512 1510 1509 1506 1504 1501 1498 1494 1490 1486 1482 1477 1473 1469 1465 1460 1455 1450 1446 1442 1438 1434 1429 1426 1423 1421 1418 1415 1412 1408 1404
1517 1518 1519 1520 1520 1520 1520 1519 1517 1516 1514 1512 1510 1508 1507 1504 1502 1499 1495 1491 1487 1483 1479 1474 1470 1465 1460 1455 1449 1444 1439 1435 1431 1427 1424 1421 1418 1416 1413 1410 1406 1403 1399
1519 1520 1521 1521 1521 1520 1519 1518 1516 1514 1512 1511 1509 1507 1505 1503 1500 1496 1492 1488 1484 1480 1476 1471 1467 1462 1457 1451 1446 1440 1435 1431 1428 1424 1420 1417 1414 1412 1409 1405 1402 1399 1395
1521 1521 1522 1522 1521 1520 1519 1517 1515 1514 1512 1510 1508 1506 1504 1501 1498 1494 1490 1486 1482 1477 1473 1469 1464 1459 1454 1449 1443 1438 1433 1429 1426 1422 1419 1415 1412 1409 1406 1403 1399 1396 1392
1522 1522 1522 1522 1521 1520 1518 1517 1515 1514 1512 1510 1508 1505 1503 1500 1496 1493 1489 1485 1480 1475 1471 1466 1462 1457 1452 1447 1442 1438 1433 1429 1425 1422 1418 1415 1412 1408 1404 1401 1397 1394 1390
1523 1523 1522 1522 1521 1520 1518 1517 1515 1513 1512 1509 1507 1504 1502 1498 1495 1491 1487 1484 1479 1475 1470 1465 1460 1456 1451 1446 1442 1437 1433 1430 1426 1422 1419 1415 1411 1407 1404 1400 1396 1393 1390
1523 1523 1523 1523 1522 1520 1519 1517 1515 1513 1511 1509 1506 1503 1500 1497 1493 1490 1486 1482 1478 1474 1469 1465 1460 1455 1450 1445 1441 1437 1434 1430 1427 1423 1419 1415 1412 1408 1404 1401 1398 1395 1392
1524 1524 1524 1523 1521 1520 1519 1517 1515 1513 1511 1508 1506 1502 1499 1496 1492 1488 1484 1480 1476 1472 1468 1464 1459 1455 1450 1445 1441 1438 1435 1431 1428 1424 1420 1416 1412 1408 1405 1402 1399 1397 1394
1525 1525 1524 1523 1521 1520 1519 1517 1515 1513 1511 1508 1505 1502 1498 1494 1491 1487 1483 1479 1475 1471 1468 1464 1459 1455 1450 1446 1443 1439 1436 1433 1429 1425 1421 1417 1413 1410 1407 1404 1401 1399 1397
1525 1525 1524 1523 1522 1520 1519 1517 1515 1513 1510 1508 1505 1502 1498 1495 1490 1487 1483 1479 1475 1472 1468 1464 1460 1456 1452 1448 1445 1441 1438 1435 1431 1427 1424 1420 1416 1412 1409 1406 1404 1402 1400
1526 1525 1525 1523 1521 1520 1518 1516 1515 1513 1510 1507 1504 1501 1498 1494 1490 1486 1482 1479 1476 1472 1469 1465 1462 1458 1454 1451 1448 1444 1441 1438 1434 1431 1427 1424 1420 1416 1412 1409 1407 1405 1404
1527 1526 1524 1523 1521 1519 1517 1516 1514 1512 1510 1507 1504 1501 1497 1493 1490 1486 1482 1479 1476 1473 1470 1467 1464 1460 1457 1454 1450 1447 1444 1441 1438 1435 1432 1428 1425 1421 1417 1414 1412 1410 1409
1527 1526 1524 1522 1520 1518 1517 1516 1514 1512 1510 1508 1505 1501 1498 1494 1490 1487 1483 1480 1477 1475 1472 1469 1466 1463 1460 1457 1454 1451 1448 1445 1442 1439 1436 1433 1431 1427 1424 1421 1418 1417 1414
1527 1526 1524 1523 1521 1519 1517 1516 1514 1512 1510 1508 1505 1502 1498 1495 1491 1488 1485 1482 1479 1477 1474 1471 1468 1465 1462 1460 1457 1454 1451 1449 1446 1444 1441 1438 1436 1433 1431 1428 1426 1423 1421
1527 1526 1524 1523 1521 1519 1518 1516 1514 1512 1511 1508 1506 1503 1500 1496 1493 1490 1487 1484 1481 1479 1476 1474 1471 1468 1465 1463 1460 1458 1455 1453 1451 1448 1446 1443 1441 1439 1437 1434 1432 1430 1428
1526 1525 1524 1523 1521 1520 1518 1517 1515 1513 1511 1509 1507 1504 1502 1498 1495 1492 1489 1486 1484 1481 1479 1476 1473 1471 1468 1466 1463 1461 1459 1457 1455 1453 1451 1449 1446 1445 1443 1441 1439 1437 1435
1527 1526 1524 1523 1522 1520 1519 1517 1516 1514 1512 1510 1508 1506 1503 1500 1497 1494 1491 1488 1486 1484 1481 1478 1476 1474 1471 1469 1467 1465 1463 1462 1460 1458 1456 1454 1452 1450 1448 1446 1445 1443 1442
1528 1526 1525 1524 1522 1521 1519 1518 1517 1515 1513 1512 1510 1507 1505 1502 1500 1497 1494 1491 1489 1486 1484 1481 1479 1476 1474 1472 1471 1469 1468 1466 1465 1463 1461 1459 1457 1455 1454 1452 1451 1450 1449
1529 1527 1526 1524 1523 1522 1520 1519 1518 1516 1514 1513 1511 1509 1507 1505 1502 1500 1497 1495 1492 1490 1487 1485 1482 1480 1478 1476 1475 1473 1472 1471 1470 1468 1466 1464 1462 1461 1459 1458 1457 1456 1456
1530 1528 1527 1525 1524 1523 1521 1520 1518 1517 1515 1514 1512 1510 1508 1506 1504 1502 1500 1498 1496 1493 1491 1488 1486 1484 1482 1480 1479 1477 1477 1476 1474 1473 1471 1470 1468 1467 1465 1464 1464 1463 1463